Location: Wald
(31.7579°N, 86.6655°W)
Time: 11:59:18
(UTC+00:00)

Cosmos 2360 Rocket - Pass Details

Date: 14 July 2020
Orbit: 832 x 846 km, 71.0° (Epoch: 08 August)

Event Time Altitude Azimuth Distance (km) Brightness Sun altitude
Rises 01:09:48 0° 221° (SW) 3,373 5.5 -3.9°
Reaches altitude 10° 01:12:26 10° 230° (SW) 2,445 4.9 -4.3°
Maximum altitude 01:17:32 35° 296° (WNW) 1,322 4.2 -5.3°
Drops below altitude 10° 01:22:41 10° 1° (N) 2,464 5.0 -6.2°
Sets 01:25:21 0° 10° (N) 3,404 5.6 -6.7°
